Location: Ashburnham
(50.9000°N, 0.4000°E)
Time: 13:17:01
(UTC+00:00)

Daily predictions for brighter satellites

Satellite Brightness Start Highest point End
(mag) Time Altitude Azimuth Time Altitude Azimuth Time Altitude Azimuth
Cosmos 2228 Rocket 4.3 20:30:25 10° SE 20:34:13 27° E 20:38:02 10° NNE
Cosmos 1464 Rocket 4.0 20:29:08 10° S 20:35:15 66° E 20:41:21 10° NNE
ARGOS Delta rocket 4.2 20:29:57 10° NNE 20:35:29 75° E 20:40:54 10° S
ISS -3.7 20:34:08 10° WNW 20:37:29 72° SSW 20:40:49 10° ESE
Cosmos 2344 3.7 20:30:52 10° SSW 20:38:02 52° ESE 20:45:25 10° NE
Cosmos 2322 Rocket 4.2 20:39:17 10° E 20:39:29 10° E 20:39:42 10° E
Cosmos 1844 Rocket 4.5 20:35:16 10° NNW 20:39:36 22° NE 20:43:54 10° E
Cosmos 773 Rocket 4.1 20:34:25 10° NNW 20:39:39 67° ENE 20:44:49 10° SE
Cosmos 2369 3.9 20:34:18 10° S 20:39:46 54° ESE 20:45:18 10° NE
Cosmos 1536 3.2 20:36:11 10° NNW 20:40:11 67° W 20:44:11 10° S
Cosmos 1354 Rocket 4.4 20:35:47 10° S 20:40:45 44° ESE 20:45:46 10° NE
Spot 2 Rocket 4.0 20:36:28 10° SE 20:41:15 46° ENE 20:46:06 10° N
SPOT 3 Rocket 3.6 20:37:17 10° SSE 20:42:24 71° ENE 20:47:33 10° NNW
ATLAS 2AS CENTAUR R/B 3.4 20:35:43 10° S 20:42:51 41° ESE 20:49:48 10° NE
H-2A R/B 2.7 20:41:21 10° N 20:45:23 58° WNW 20:49:24 10° SSW
Okean 1 3.9 20:41:38 10° SSE 20:45:24 41° E 20:49:12 10° NNE
Cosmos 1092 Rocket 4.4 20:39:49 10° N 20:45:48 47° ENE 20:51:42 10° SE
Cosmos 1486 Rocket 4.1 20:40:51 10° SSW 20:46:10 89° E 20:51:28 10° NNE
Nadezhda 4 Rocket 4.0 20:40:28 10° N 20:46:44 77° ENE 20:52:54 10° SSE
NOSS 3-4 (A) 3.5 20:41:31 10° SW 20:47:17 87° NW 20:53:38 10° NE
NOSS 3-4 (C) 3.5 20:41:34 10° SW 20:47:20 88° NW 20:53:42 10° NE
Meteor 1-19 Rocket 4.5 20:42:22 10° SSE 20:47:31 47° E 20:52:41 10° NNE
SL-4 R/B 3.8 20:44:17 10° W 20:47:58 24° SW 20:51:29 10° SSE
Cosmos 1697 Rocket 2.8 20:43:14 10° SSW 20:48:54 85° WNW 20:54:37 10° NNE
RESURS DK-1 3.3 20:45:22 10° S 20:48:55 29° ESE 20:52:31 10° NE
Cosmos 2360 4.4 20:48:59 10° SSW 20:54:41 82° WNW 21:00:26 10° NNE
Cosmos 2297 Rocket 4.3 20:50:47 10° NW 20:54:58 22° W 20:59:10 10° SSW
ATLAS CENTAUR R/B 3.7 20:51:12 10° NNW 20:55:10 23° NNE 20:59:03 10° ENE
USA 267 4.1 20:49:17 10° ENE 20:55:36 53° N 21:01:55 10° WNW
Cosmos 44 Rocket 3.4 20:52:07 10° NW 20:56:51 67° NE 21:01:28 10° SE
ARIANE 5 R/B 3.7 20:53:48 10° SE 20:57:50 34° ENE 21:01:54 10° N
MetOp-B 4.4 20:53:58 10° S 20:59:18 72° WSW 21:04:41 10° NNW
Cosmos 2227 4.5 20:56:45 10° NNW 21:02:30 63° NE 21:07:59 11° SE
Cosmos 158 Rocket 4.2 20:59:24 10° NNW 21:04:30 64° ENE 21:09:24 12° SE
Cosmos 1184 Rocket 3.1 21:01:40 10° SSW 21:04:40 61° WNW 21:07:40 10° N
ATLAS 3B R/B 3.2 20:58:28 10° NW 21:05:43 66° NE 21:13:16 10° ESE
Meteor 2-9 Rocket 4.3 21:00:13 10° NNW 21:06:04 89° ENE 21:11:42 10° S
Cosmos 1975 3.2 21:06:04 10° N 21:10:04 51° ENE 21:13:33 13° SSE
Cosmos 2026 Rocket 4.2 21:05:02 10° N 21:11:09 61° ENE 21:17:00 11° SSE
Cosmos 389 Rocket 4.1 21:08:16 10° NNW 21:11:24 31° W 21:14:33 10° SSW
Cosmos 1503 Rocket 4.1 21:10:09 10° SSW 21:15:27 87° WNW 21:20:51 10° NNE
CZ-4B R/B 3.3 21:13:10 10° N 21:16:02 30° WNW 21:18:50 10° SW
CZ-4C R/B 4.1 21:11:16 10° NW 21:17:07 35° NNE 21:24:07 10° E
Meteor 1-4 Rocket 4.3 21:14:37 10° NNE 21:17:14 19° ENE 21:19:36 11° ESE
ERS-1 Rocket 3.0 21:12:32 11° SSE 21:17:22 77° ENE 21:22:26 10° NNW
BREEZE-M (TANK) 4.3 21:13:17 10° WSW 21:17:45 79° SSE 21:37:42 10° E
SL-16 R/B 3.2 21:13:28 10° SSE 21:18:06 28° ESE 21:22:51 10° NE
Cosmos 1538 Rocket 4.2 21:14:38 10° NNW 21:19:52 63° ENE 21:24:18 14° SE
Helios 1A Rocket 3.1 21:19:01 10° S 21:22:57 67° WSW 21:26:58 10° NNW
CZ-2C R/B 4.0 21:18:24 10° NNE 21:23:05 53° E 21:27:45 10° S
Cosmos 1733 Rocket 3.6 21:20:00 10° N 21:24:19 46° ENE 21:27:44 15° SE
SJ 16-02 1.4 21:28:21 10° SSW 21:32:42 83° WNW 21:37:08 10° NNE
Geosat 4.4 21:28:35 13° SE 21:32:54 55° NE 21:37:49 10° NNW
Meteor 1-18 Rocket 4.2 21:27:39 10° S 21:33:19 74° E 21:38:56 10° NNE
Cosmos 2292 Rocket 2.7 21:33:03 10° NNW 21:36:06 71° W 21:38:16 17° S
Cosmos 2034 Rocket 4.4 21:32:06 10° SSW 21:38:22 66° WNW 21:44:44 10° N
Cosmos 2278 3.7 21:32:46 10° SSW 21:38:25 80° ESE 21:44:09 10° NNE
ASTRO F (AKARI) 4.4 21:37:45 17° S 21:40:00 65° WSW 21:43:10 10° NNW
Cosmos 1862 Rocket 4.2 21:37:31 17° SSE 21:40:35 41° E 21:44:49 10° NNE
BREEZE M DEB (TANK) 4.3 21:37:29 10° W 21:41:44 47° SSW 21:55:47 11° SE
Cosmos 1726 4.1 21:40:29 10° NNE 21:43:02 18° ENE 21:45:09 12° ESE
Cosmos 2360 Rocket 3.5 21:40:42 16° SE 21:43:19 21° E 21:47:28 10° NE
Cosmos 2263 Rocket 2.8 21:39:11 10° NW 21:44:34 49° WSW 21:49:11 14° S
Meteor 2-15 4.5 21:41:00 12° S 21:46:28 64° E 21:52:29 10° NNE
NOSS 2-1 (C) 3.3 21:46:44 15° S 21:49:08 38° SE 21:52:10 10° ENE
SPOT 5 3.6 21:45:43 11° S 21:50:39 53° W 21:55:40 10° NNW
Terra 2.0 21:47:56 15° S 21:51:50 69° WSW 21:56:37 10° NNW
SAR-Lupe-1 4.4 21:49:16 10° NNE 21:52:45 48° E 21:54:47 22° SSE
Cosmos 1441 Rocket 3.8 21:51:04 22° SSE 21:52:56 37° E 21:56:24 10° NNE
Resurs 01 Rocket 4.2 21:50:58 10° WSW 21:53:16 14° W 21:55:35 10° NW
Cosmos 1346 Rocket 2.8 21:50:23 16° S 21:53:34 74° E 21:57:35 10° NNE
Cosmos 2279 Rocket 4.1 21:53:29 16° S 21:58:30 63° E 22:04:40 10° NNE
NOSS 2-1 (D) 2.9 21:56:58 14° SSW 21:59:33 48° SE 22:02:42 10° NE
Cosmos 1680 Rocket 4.1 21:54:26 10° NNW 21:59:37 49° ENE 22:03:26 17° SE
USA 215 4.2 21:55:21 10° ENE 22:00:36 25° SE 22:03:42 18° SSE
Iridium 2 3.7 21:58:32 10° N 22:02:18 68° E 22:04:23 25° SSE
Cosmos 1818 4.0 22:02:20 10° NW 22:07:47 61° NE 22:12:08 16° ESE
Cosmos 1066 Rocket 4.5 22:05:06 19° SSE 22:09:06 55° E 22:14:36 10° NNE
Iridium 4 Rocket 4.1 22:06:47 10° NNE 22:11:02 38° E 22:13:43 21° SE
Cosmos 2228 Rocket 4.4 22:07:58 10° SW 22:12:16 39° WNW 22:16:34 10° N
Cosmos 1378 4.3 22:09:11 10° SW 22:12:39 40° WNW 22:16:09 10° N
ISS -2.2 22:11:18 10° W 22:13:52 21° SW 22:14:21 20° SSW
Cosmos 1980 Rocket 3.4 22:08:48 10° WSW 22:14:10 43° NW 22:19:36 10° NNE
Cosmos 1898 Rocket 4.3 22:11:50 22° SSE 22:14:34 36° ESE 22:19:23 10° NE
Okean 1-7 3.8 22:17:25 24° SE 22:19:25 38° E 22:23:29 10° NNE
Iridium 51 4.4 22:21:00 30° SE 22:22:19 49° E 22:25:49 10° NNE
Cosmos 2322 Rocket 2.2 22:18:02 17° S 22:22:20 60° ESE 22:27:52 10° NE
Cosmos 1844 Rocket 2.7 22:18:44 10° NNW 22:24:22 84° ENE 22:27:57 23° SSE
Cosmos 2180 Rocket 4.4 22:21:19 19° S 22:25:47 75° E 22:31:57 10° NNE
Cosmos 1805 3.2 22:22:37 10° NNW 22:26:32 81° W 22:28:28 29° S
Okean 3 4.4 22:25:02 24° SE 22:26:42 34° E 22:30:33 10° NNE
RESURS DK-1 3.8 22:22:57 10° WSW 22:26:49 38° NW 22:30:43 10° NNE
Cosmos 2333 Rocket 3.3 22:25:18 21° SE 22:27:26 26° ESE 22:32:05 10° NE
Meteor 2-4 Rocket 4.4 22:23:08 10° SSW 22:28:46 55° WNW 22:34:18 10° N
Cosmos 1461 4.2 22:26:29 10° NNW 22:30:17 35° NE 22:33:55 11° ESE
BREEZE-M DEB (TANK) 3.3 22:28:58 10° W 22:31:20 28° SSW 22:31:52 27° S
ATLAS 2AS CENTAUR R/B 3.3 22:25:51 10° SW 22:33:37 68° NW 22:41:04 10° NE
ARIANE 5 R/B 3.9 22:31:11 15° SSW 22:34:17 33° W 22:38:22 10° NNW
ATLAS CENTAUR R/B 1.9 22:29:52 10° NW 22:34:47 71° NE 22:37:50 22° SE
USA 267 3.5 22:31:44 10° ESE 22:38:15 73° NNE 22:44:47 10° WNW
Cosmos 1733 3.5 22:35:55 10° NNW 22:39:39 56° W 22:41:23 28° SSW
Cosmos 1766 3.2 22:37:45 10° N 22:41:43 80° E 22:43:23 33° SSE
Cosmos 2219 Rocket 3.2 22:44:47 23° SE 22:46:46 28° ESE 22:51:27 10° NE
Cosmos 1844 3.7 22:42:15 10° NNW 22:48:05 80° WSW 22:51:27 26° SSE
Cosmos 1703 Rocket 3.6 22:48:15 30° S 22:50:22 71° E 22:54:48 10° NNE
Meteor 1-4 Rocket 3.6 22:49:00 10° NNW 22:52:10 34° W 22:53:35 24° SW
Cosmos 2344 4.5 22:45:20 10° WSW 22:52:29 51° NNW 23:00:34 10° NE
ATLAS 3B R/B 3.6 22:49:28 10° NW 22:56:17 42° WSW 23:00:39 22° S
NOSS 2-1 (E) 3.6 22:55:44 10° WSW 22:58:51 51° NW 23:02:11 10° NE
NOSS 3-1 (A) 4.3 22:52:57 10° NW 23:00:01 66° NE 23:08:29 10° ESE
Cosmos 1655 Rocket 4.1 22:54:07 10° NNW 23:00:22 74° W 23:04:10 25° S
Cosmos 1707 4.0 23:00:36 25° ESE 23:01:37 28° E 23:04:58 10° NNE
SL-16 R/B 2.7 22:56:15 10° SW 23:01:51 60° NW 23:07:30 10° NNE
Cosmos 1782 Rocket 3.5 22:58:33 10° N 23:02:56 89° ENE 23:04:50 34° S
Cosmos 2237 4.3 22:58:24 14° SW 23:03:27 80° WNW 23:09:14 10° NNE
ERS-2 2.9 23:02:46 10° NNE 23:06:10 36° E 23:06:52 33° SE
CZ-4C R/B 3.1 22:59:44 10° NW 23:06:42 76° NE 23:14:17 13° SE
NOSS 3-1 (C) 4.0 23:00:09 10° NW 23:07:25 86° SW 23:14:02 19° SE
USA 290 4.4 23:10:46 15° E 23:10:46 15° E 23:12:22 10° ENE
Cosmos 1238 Rocket 4.3 23:08:57 10° NNE 23:11:05 18° ENE 23:11:57 16° E
SJ 16-02 4.2 23:09:33 10° W 23:12:01 15° NW 23:14:29 10° NNW
SWARM A 4.3 23:12:49 48° SSE 23:13:36 69° E 23:16:59 10° N
Cosmos 1908 Rocket 4.4 23:09:42 10° NNW 23:13:46 40° W 23:15:46 25° SW
Gblst 52 Del rocket 4.3 23:07:53 10° SW 23:14:14 62° SSE 23:19:52 10° ENE
Cosmos 2237 Rocket 4.2 23:14:56 12° ESE 23:16:53 14° E 23:19:38 10° ENE
Cosmos 1470 2.6 23:13:52 10° N 23:17:46 81° E 23:19:01 41° SSE
Cosmos 1726 2.8 23:14:45 10° NNW 23:18:16 43° W 23:19:26 32° SW
Cosmos 1300 Rocket 3.6 23:14:43 10° N 23:19:05 73° E 23:20:51 35° SSE
COSMOS 2428 3.5 23:17:53 27° SSE 23:20:03 36° ESE 23:25:12 10° NE
Cosmos 2242 Rocket 3.7 23:21:24 30° SSW 23:23:38 73° W 23:28:12 10° N
ALOS 2 2.5 23:22:00 35° S 23:23:48 82° WSW 23:28:13 10° NNW
Cosmos 1242 Rocket 3.1 23:21:29 10° N 23:25:00 47° ENE 23:26:07 34° ESE
Cosmos 1937 Rocket 3.5 23:22:47 25° SSW 23:25:52 87° WNW 23:31:13 10° NNE
Okean 2 Rocket 3.7 23:21:34 10° N 23:25:58 48° ENE 23:28:05 27° SE
Cosmos 2360 Rocket 2.3 23:22:25 18° SW 23:26:43 76° WNW 23:32:24 10° NNE
Cosmos 1943 Rocket 4.5 23:23:46 10° NNW 23:28:02 21° NE 23:32:17 10° E
Cosmos 405 Rocket 4.5 23:28:20 18° ESE 23:29:15 19° E 23:32:00 10° NE
Cosmos 1437 Rocket 4.4 23:28:34 10° N 23:31:44 25° ENE 23:33:33 17° ESE
Cosmos 2333 4.1 23:29:02 27° SSW 23:32:13 78° ESE 23:37:54 10° NNE
Cosmos 1908 4.1 23:29:48 10° N 23:33:23 38° ENE 23:34:48 27° ESE
Cosmos 1867 4.1 23:33:44 30° SSE 23:35:38 41° ESE 23:40:46 10° NE
Meteor 1-21 4.5 23:34:35 29° SSE 23:37:31 62° E 23:43:15 10° NNE
Cosmos 1626 3.1 23:37:36 30° ESE 23:38:25 33° E 23:41:45 10° NNE
Cosmos 1842 3.6 23:38:57 33° SW 23:40:27 57° WNW 23:44:17 10° N
Cosmos 1953 3.7 23:39:13 10° N 23:42:49 30° ENE 23:44:46 20° ESE
USA 215 3.2 23:37:49 10° ENE 23:44:23 72° SE 23:50:55 10° SW
Cosmos 2278 Rocket 2.7 23:38:52 10° NNW 23:44:30 58° NE 23:48:51 17° SE
Cosmos 1674 2.9 23:50:45 42° SSE 23:51:42 57° E 23:55:24 10° NNE
Sich 1 Rocket 3.5 23:47:54 10° NNW 23:52:20 79° W 23:54:00 38° S
